VKG1BF EKCH-EDDH

Flight info

Callsign VKG1BF
Flight time N/A
Altitude 22000
Route NEXEN T503 MICOS N850 BOGMU BOGMU3P
Aircraft A321/M-SDE3FGHIRWY/LB1

Departure

Time N/A
Airport Copenhagen Kastrup Airport (EKCH)

Arrival

Time 2026-04-24 21:02
Airport Hamburg Helmut Schmidt Airport (EDDH)
Time Latitude Longitude Altitude Speed Heading
2026-04-24 20:40 55.07434 11.95805 21989 ft 424 kts 221°
2026-04-24 20:41 55.04935 11.92625 22015 ft 428 kts 221°
2026-04-24 20:41 55.02631 11.89699 22017 ft 429 kts 221°
2026-04-24 20:41 55.00223 11.86644 22015 ft 429 kts 221°
2026-04-24 20:41 54.97808 11.83585 22023 ft 429 kts 221°
2026-04-24 20:42 54.95394 11.80527 22025 ft 429 kts 221°
2026-04-24 20:42 54.92978 11.77473 22031 ft 429 kts 220°
2026-04-24 20:42 54.90557 11.74418 22009 ft 429 kts 220°
2026-04-24 20:42 54.88144 11.71382 22031 ft 429 kts 220°
2026-04-24 20:43 54.85719 11.68337 22034 ft 429 kts 220°
2026-04-24 20:43 54.83294 11.65302 22035 ft 429 kts 220°
2026-04-24 20:43 54.80867 11.62269 22018 ft 429 kts 220°
2026-04-24 20:43 54.78452 11.59252 22018 ft 429 kts 220°
2026-04-24 20:44 54.76033 11.56229 22019 ft 429 kts 220°
2026-04-24 20:44 54.73611 11.53202 22021 ft 429 kts 220°
2026-04-24 20:44 54.71187 11.50179 22016 ft 429 kts 220°
2026-04-24 20:44 54.68799 11.47206 22033 ft 429 kts 220°
2026-04-24 20:45 54.66378 11.44198 21804 ft 418 kts 220°
2026-04-24 20:45 54.64039 11.41308 21516 ft 411 kts 220°
2026-04-24 20:45 54.61723 11.38447 21075 ft 407 kts 220°
2026-04-24 20:45 54.59455 11.35648 20600 ft 404 kts 220°
2026-04-24 20:46 54.57276 11.32955 20172 ft 400 kts 220°
2026-04-24 20:46 54.55048 11.30203 19731 ft 397 kts 220°
2026-04-24 20:46 54.52809 11.27460 19272 ft 393 kts 220°
2026-04-24 20:46 54.50560 11.24714 18765 ft 389 kts 221°
2026-04-24 20:47 54.48413 11.22004 18496 ft 388 kts 221°
2026-04-24 20:47 54.46231 11.19172 18221 ft 392 kts 222°
2026-04-24 20:47 54.44033 11.16269 17574 ft 402 kts 222°
2026-04-24 20:47 54.41811 11.13340 16974 ft 402 kts 222°
2026-04-24 20:48 54.39615 11.10465 16389 ft 400 kts 222°
2026-04-24 20:48 54.37404 11.07586 15830 ft 397 kts 222°
2026-04-24 20:48 54.35215 11.04749 15350 ft 391 kts 222°
2026-04-24 20:48 54.33057 11.01967 14894 ft 386 kts 222°
2026-04-24 20:49 54.30922 10.99221 14454 ft 382 kts 222°
2026-04-24 20:49 54.28802 10.96490 13776 ft 384 kts 222°
2026-04-24 20:49 54.26685 10.93765 13437 ft 375 kts 222°
2026-04-24 20:49 54.24596 10.91086 12779 ft 377 kts 222°
2026-04-24 20:50 54.22480 10.88373 12197 ft 377 kts 221°
2026-04-24 20:50 54.20418 10.85743 12066 ft 363 kts 222°
2026-04-24 20:50 54.18433 10.83218 11946 ft 349 kts 222°
2026-04-24 20:50 54.16519 10.80787 11818 ft 334 kts 222°
2026-04-24 20:51 54.14701 10.78480 11689 ft 317 kts 223°
2026-04-24 20:51 54.12963 10.76273 11307 ft 308 kts 223°
2026-04-24 20:51 54.11264 10.74101 10763 ft 304 kts 223°
2026-04-24 20:51 54.09577 10.71937 10320 ft 303 kts 223°
2026-04-24 20:52 54.08444 10.70488 10174 ft 299 kts 223°
2026-04-24 20:52 54.06786 10.68375 9945 ft 295 kts 223°
2026-04-24 20:52 54.05170 10.66330 9693 ft 286 kts 223°
2026-04-24 20:52 54.03555 10.64277 9030 ft 295 kts 223°
2026-04-24 20:53 54.01905 10.62177 8569 ft 295 kts 222°
2026-04-24 20:53 54.00261 10.60094 8111 ft 294 kts 222°
2026-04-24 20:53 53.98633 10.58037 7614 ft 289 kts 222°
2026-04-24 20:53 53.97020 10.56002 7192 ft 289 kts 221°
2026-04-24 20:54 53.95408 10.53974 6744 ft 285 kts 221°
2026-04-24 20:54 53.93841 10.52011 6317 ft 276 kts 221°
2026-04-24 20:54 53.92324 10.50116 5904 ft 266 kts 221°
2026-04-24 20:54 53.90858 10.48281 5507 ft 260 kts 221°
2026-04-24 20:55 53.89404 10.46450 5117 ft 259 kts 222°
2026-04-24 20:55 53.87972 10.44650 4783 ft 254 kts 221°
2026-04-24 20:55 53.86572 10.42896 4345 ft 246 kts 222°
2026-04-24 20:55 53.85228 10.41216 4184 ft 233 kts 222°
2026-04-24 20:56 53.83947 10.39619 4082 ft 226 kts 223°
2026-04-24 20:56 53.82687 10.38041 3984 ft 225 kts 223°
2026-04-24 20:56 53.81463 10.36424 3978 ft 219 kts 232°
2026-04-24 20:56 53.80509 10.34485 3984 ft 213 kts 237°
2026-04-24 20:57 53.79579 10.32559 3974 ft 211 kts 237°
2026-04-24 20:57 53.78667 10.30685 3989 ft 201 kts 237°
2026-04-24 20:57 53.77757 10.28813 3731 ft 215 kts 237°
2026-04-24 20:57 53.76805 10.26846 3466 ft 217 kts 237°
2026-04-24 20:58 53.75830 10.24874 3306 ft 220 kts 237°
2026-04-24 20:58 53.74867 10.22915 3190 ft 219 kts 237°
2026-04-24 20:58 53.73906 10.20954 3095 ft 211 kts 237°
2026-04-24 20:58 53.73013 10.19136 2999 ft 193 kts 237°
2026-04-24 20:59 53.72182 10.17427 2763 ft 185 kts 238°
2026-04-24 20:59 53.71377 10.15767 2489 ft 180 kts 238°
2026-04-24 20:59 53.70606 10.14213 2308 ft 168 kts 238°
2026-04-24 20:59 53.69884 10.12759 2080 ft 156 kts 238°
2026-04-24 21:00 53.69212 10.11386 1809 ft 148 kts 238°
2026-04-24 21:00 53.68568 10.10046 1571 ft 146 kts 239°
2026-04-24 21:00 53.67922 10.08738 1377 ft 145 kts 238°
2026-04-24 21:00 53.67276 10.07433 1212 ft 144 kts 237°
2026-04-24 21:01 53.66638 10.06127 1031 ft 146 kts 238°
2026-04-24 21:01 53.65999 10.04822 822 ft 142 kts 237°
2026-04-24 21:01 53.65377 10.03556 643 ft 140 kts 237°
2026-04-24 21:01 53.64765 10.02298 451 ft 138 kts 237°
2026-04-24 21:02 53.64137 10.01034 261 ft 142 kts 234°
2026-04-24 21:02 53.63513 9.99776 89 ft 138 kts 235°
2026-04-24 21:02 53.62915 9.98582 49 ft 111 kts 230°
2026-04-24 21:02 53.62602 9.97942 47 ft 41 kts 230°
2026-04-24 21:03 53.62480 9.97788 47 ft 15 kts 166°
2026-04-24 21:03 53.62430 9.97876 50 ft 9 kts 103°
2026-04-24 21:03 53.62432 9.97941 50 ft 4 kts 81°
2026-04-24 21:03 53.62440 9.97998 49 ft 7 kts 71°
2026-04-24 21:04 53.62461 9.98074 50 ft 6 kts 62°
2026-04-24 21:04 53.62488 9.98143 49 ft 9 kts 53°
2026-04-24 21:04 53.62530 9.98229 49 ft 9 kts 50°
2026-04-24 21:04 53.62569 9.98308 50 ft 10 kts 50°
2026-04-24 21:05 53.62622 9.98416 49 ft 14 kts 50°
2026-04-24 21:05 53.62683 9.98538 50 ft 12 kts 50°
2026-04-24 21:05 53.62733 9.98639 49 ft 12 kts 50°
2026-04-24 21:05 53.62782 9.98736 50 ft 9 kts 51°
2026-04-24 21:06 53.62820 9.98815 50 ft 10 kts 51°
2026-04-24 21:06 53.62868 9.98917 50 ft 13 kts 51°
2026-04-24 21:06 53.62924 9.99029 50 ft 11 kts 49°
2026-04-24 21:06 53.62967 9.99115 50 ft 9 kts 51°
2026-04-24 21:07 53.63015 9.99211 50 ft 12 kts 49°
2026-04-24 21:07 53.63075 9.99340 50 ft 15 kts 54°
2026-04-24 21:07 53.63131 9.99472 47 ft 12 kts 54°
2026-04-24 21:07 53.63178 9.99580 47 ft 11 kts 53°
2026-04-24 21:08 53.63223 9.99673 50 ft 10 kts 48°
2026-04-24 21:08 53.63274 9.99758 48 ft 12 kts 45°
2026-04-24 21:08 53.63334 9.99874 50 ft 12 kts 50°
2026-04-24 21:08 53.63387 9.99980 48 ft 12 kts 50°
2026-04-24 21:09 53.63435 10.00099 51 ft 11 kts 69°
2026-04-24 21:09 53.63446 10.00187 51 ft 7 kts 85°
2026-04-24 21:09 53.63448 10.00263 51 ft 6 kts 88°
2026-04-24 21:09 53.63449 10.00295 51 ft 1 kts 88°
2026-04-24 21:10 53.63449 10.00303 51 ft 0 kts 88°
2026-04-24 21:10 53.63449 10.00305 51 ft 0 kts 88°